"Pseudo-MPEC" for P11OrTJ

Created 2023 Nov 26 12:22:06 UT using Find_Orb

Click here for an explanation of pseudo-MPECs

 
 Astrometry: 
     P11OrTJ* C2023 11 19xFHrab*Kc[.$Astrometry`jUhaC.Jlredacted;nclick#oeA%lF51
     P11OrTJ  C2023 11 19;`Da.pJ!'g6i):ONIhere=5lK98ta9^g+SM)o5forq_!yLkhU`r)F51
     P11OrTJ  C2023 11 19/5rV;1Hi(0(@whs$qB9qnxLexplanationmJ5Y$acgw5C8Gl'OVcF51

Station data:
(F51) Pan-STARRS 1, Haleakala  (N20.707234 W156.255910)  US/Hawaii.
   Observers J. Bulger, T. Lowe, A. Schultz, M. Willman. Measurers K.
   Chambers, S. Chastel, T. de Boer, L. Denneau, J. Fairlamb, H. Flewelling,
   M. Huber, C.-C. Lin, E. Magnier, Y. Ramanjooloo, R. Wainscoat, R. Weryk.
   1.8-m Ritchey-Chrétien + CCD.

Orbital elements:  P11OrTJ
   Perihelion 2024 Jan 2.16264 +/- 33.3 TT =  3:54:12 (JD 2460311.66264)
Epoch 2023 Nov 19.0 TT = JDT 2460267.5   Earth MOID: 0.0085   Ma: 0.0470
M 358.90242539 +/- 19               (J2000 ecliptic)             AutoNEOCP
n   0.02485300 +/- 0.124            Peri.   82.05829 +/- 60
a  11.6292059 +/- 38.5              Node    60.93727 +/- 53
e   0.9496633 +/- 0.251             Incl.   20.64214 +/- 5.6
P  39.66                   H 25.59  G  0.15   U 11.3  SR
q 0.58537551 +/- 0.167    Q 22.6730363 +/- 40.9
From 3 observations 2023 Nov. 19 (54.9 min); mean residual 0".33
Residuals in arcseconds: 
231119 F51  .21-  .38-    231119 F51  .31+  .56+    231119 F51  .10-  .19-    

Ephemerides (geocentric):
Date (UTC) HH   RA             Dec           delta  r     elong  mag " sig PA
---- --------  ------------   ------------  ------ ------ -----  --- --------
2023 11 26 12  15 14 56.671   +17 41 12.13  .03853 .95802  40.6 25??  60d  86
2023 11 26 13  15 16 06.165   +17 25 25.72  .03916 .95740  40.3 25??  60d  86
2023 11 26 14  15 17 13.249   +17 10 08.01  .03980 .95677  40.0 25??  60d  86
2023 11 26 15  15 18 18.041   +16 55 17.79  .04044 .95615  39.7 25??  60d  86
2023 11 26 16  15 19 20.655   +16 40 53.93  .04108 .95553  39.4 25??  60d  86
2023 11 26 17  15 20 21.198   +16 26 55.36  .04172 .95490  39.1 25??  61d  86
2023 11 26 18  15 21 19.767   +16 13 21.05  .04237 .95428  38.8 25??  61d  86
2023 11 26 19  15 22 16.455   +16 00 10.01  .04301 .95366  38.6 25??  61d  86
2023 11 26 20  15 23 11.351   +15 47 21.32  .04366 .95303  38.3 25??  61d  86
2023 11 26 21  15 24 04.536   +15 34 54.09  .04431 .95241  38.1 25??  61d  86
2023 11 26 22  15 24 56.088   +15 22 47.49  .04495 .95179  37.9 25??  61d  86
2023 11 26 23  15 25 46.079   +15 11 00.70  .04560 .95116  37.6 25??  61d  86
2023 11 27 00  15 26 34.579   +14 59 32.96  .04626 .95054  37.4 25??  61d  86
2023 11 27 01  15 27 21.651   +14 48 23.55  .04691 .94992  37.2 25??  62d  86
2023 11 27 02  15 28 07.357   +14 37 31.77  .04756 .94930  37.0 25??  62d  86
2023 11 27 03  15 28 51.754   +14 26 56.96  .04822 .94867  36.8 25??  62d  86
2023 11 27 04  15 29 34.898   +14 16 38.49  .04887 .94805  36.6 26??  62d  86
2023 11 27 05  15 30 16.840   +14 06 35.75  .04953 .94743  36.4 26??  62d  86
2023 11 27 06  15 30 57.629   +13 56 48.18  .05018 .94681  36.2 26??  62d  86
2023 11 27 07  15 31 37.311   +13 47 15.23  .05084 .94618  36.1 26??  62d  86
2023 11 27 08  15 32 15.930   +13 37 56.37  .05150 .94556  35.9 26??  62d  86
2023 11 27 09  15 32 53.527   +13 28 51.09  .05216 .94494  35.7 26??  62d  86
2023 11 27 10  15 33 30.143   +13 19 58.94  .05282 .94432  35.6 26??  62d  86
2023 11 27 11  15 34 05.814   +13 11 19.44  .05348 .94370  35.4 26??  62d  86
2023 11 27 12  15 34 40.577   +13 02 52.16  .05414 .94307  35.2 26??  63d  86
2023 11 27 13  15 35 14.465   +12 54 36.68  .05480 .94245  35.1 26??  63d  86
2023 11 27 14  15 35 47.511   +12 46 32.61  .05547 .94183  34.9 26??  63d  86
2023 11 27 15  15 36 19.745   +12 38 39.56  .05613 .94121  34.8 26??  63d  86
2023 11 27 16  15 36 51.197   +12 30 57.16  .05679 .94059  34.7 26??  63d  86
2023 11 27 17  15 37 21.894   +12 23 25.06  .05746 .93997  34.5 26??  63d  86
2023 11 27 18  15 37 51.864   +12 16 02.94  .05812 .93935  34.4 26??  63d  86
2023 11 27 19  15 38 21.131   +12 08 50.45  .05879 .93873  34.3 26??  63d  86
2023 11 27 20  15 38 49.720   +12 01 47.30  .05945 .93811  34.1 26??  63d  86
2023 11 27 21  15 39 17.653   +11 54 53.19  .06012 .93749  34.0 26??  63d  86
2023 11 27 22  15 39 44.954   +11 48 07.83  .06079 .93687  33.9 26??  63d  86
2023 11 27 23  15 40 11.643   +11 41 30.96  .06146 .93625  33.8 26??  63d  86
2023 11 28 00  15 40 37.740   +11 35 02.30  .06212 .93563  33.7 26??  64d  86
2023 11 28 01  15 41 03.265   +11 28 41.60  .06279 .93501  33.6 26??  64d  86
2023 11 28 02  15 41 28.236   +11 22 28.63  .06346 .93439  33.5 26??  64d  86
2023 11 28 03  15 41 52.671   +11 16 23.15  .06413 .93377  33.4 27??  64d  86
2023 11 28 04  15 42 16.587   +11 10 24.94  .06480 .93315  33.3 27??  64d  86
2023 11 28 05  15 42 40.000   +11 04 33.78  .06547 .93253  33.2 27??  64d  86
2023 11 28 06  15 43 02.927   +10 58 49.46  .06614 .93191  33.1 27??  64d  86
2023 11 28 07  15 43 25.381   +10 53 11.79  .06681 .93129  33.0 27??  64d  86
2023 11 28 08  15 43 47.377   +10 47 40.58  .06748 .93067  32.9 27??  64d  86
2023 11 28 09  15 44 08.929   +10 42 15.62  .06816 .93005  32.8 27??  64d  86
2023 11 28 10  15 44 30.051   +10 36 56.76  .06883 .92943  32.7 27??  64d  86
2023 11 28 11  15 44 50.755   +10 31 43.82  .06950 .92882  32.6 27??  64d  86